| time (UTC) | temp F | wind direction | speed MPH | gust MPH | rain 1hr in | rain 24hr in | rain mn in | humidity % | barometer mb |
| 20260509224504 | 73 | 327 | 2.0 | 5.0 | 0.00 | 0.00 | 0.00 | 55 | 1009.5 |
| 20260509224004 | 73 | 348 | 2.0 | 6.0 | 0.00 | 0.00 | 0.00 | 55 | 1009.4 |
| 20260509223004 | 73 | 341 | 2.0 | 5.0 | 0.00 | 0.00 | 0.00 | 55 | 1009.5 |
| 20260509222503 | 74 | 341 | 2.0 | 5.0 | 0.00 | 0.00 | 0.00 | 54 | 1009.4 |
| 20260509221504 | 74 | 330 | 2.0 | 5.0 | 0.00 | 0.00 | 0.00 | 54 | 1009.5 |
| 20260509221004 | 74 | 332 | 2.0 | 10.0 | 0.00 | 0.00 | 0.00 | 53 | 1009.5 |
| 20260509220504 | 74 | 342 | 2.0 | 10.0 | 0.00 | 0.00 | 0.00 | 52 | 1009.5 |
| 20260509220004 | 74 | 346 | 2.0 | 9.0 | 0.00 | 0.00 | 0.00 | 53 | 1009.5 |
| 20260509215504 | 74 | 352 | 2.0 | 6.0 | 0.00 | 0.00 | 0.00 | 55 | 1009.5 |
| 20260509215005 | 73 | 353 | 2.0 | 6.0 | 0.00 | 0.00 | 0.00 | 53 | 1009.4 |
| 20260509213504 | 74 | 348 | 2.0 | 5.0 | 0.00 | 0.00 | 0.00 | 54 | 1009.4 |
| 20260509212504 | 74 | 340 | 2.0 | 8.0 | 0.00 | 0.00 | 0.00 | 54 | 1009.4 |
| 20260509212003 | 73 | 345 | 3.0 | 7.0 | 0.00 | 0.00 | 0.00 | 53 | 1009.3 |
| 20260509211504 | 73 | 347 | 2.0 | 7.0 | 0.00 | 0.00 | 0.00 | 54 | 1009.4 |
| 20260509211003 | 72 | 347 | 1.0 | 7.0 | 0.00 | 0.00 | 0.00 | 55 | 1009.4 |
| 20260509210004 | 72 | 332 | 2.0 | 4.0 | 0.00 | 0.00 | 0.00 | 52 | 1009.4 |
| 20260509205503 | 72 | 335 | 2.0 | 5.0 | 0.00 | 0.00 | 0.00 | 52 | 1009.6 |
| 20260509205004 | 72 | 334 | 2.0 | 5.0 | 0.00 | 0.00 | 0.00 | 51 | 1009.6 |
| 20260509204504 | 72 | 341 | 2.0 | 9.0 | 0.00 | 0.00 | 0.00 | 52 | 1009.5 |
| 20260509204003 | 72 | 346 | 2.0 | 11.0 | 0.00 | 0.00 | 0.00 | 53 | 1009.6 |
| 20260509203003 | 72 | 340 | 2.0 | 4.0 | 0.00 | 0.00 | 0.00 | 50 | 1009.6 |
| 20260509202504 | 72 | 350 | 2.0 | 7.0 | 0.00 | 0.00 | 0.00 | 51 | 1009.6 |
| 20260509202004 | 72 | 357 | 3.0 | 9.0 | 0.00 | 0.00 | 0.00 | 51 | 1009.6 |
| 20260509201503 | 73 | 357 | 4.0 | 9.0 | 0.00 | 0.00 | 0.00 | 51 | 1009.6 |
| 20260509201004 | 73 | 355 | 3.0 | 9.0 | 0.00 | 0.00 | 0.00 | 52 | 1009.7 |
| 20260509200503 | 73 | 357 | 3.0 | 9.0 | 0.00 | 0.00 | 0.00 | 51 | 1009.8 |
| 20260509200004 | 73 | 338 | 3.0 | 12.0 | 0.00 | 0.00 | 0.00 | 48 | 1009.9 |
| 20260509195503 | 73 | 333 | 4.0 | 12.0 | 0.00 | 0.00 | 0.00 | 47 | 1010.1 |
| 20260509194504 | 73 | 350 | 4.0 | 13.0 | 0.00 | 0.00 | 0.00 | 50 | 1010.4 |
| 20260509194003 | 73 | 351 | 4.0 | 13.0 | 0.00 | 0.00 | 0.00 | 53 | 1010.5 |
| 20260509193504 | 74 | 344 | 4.0 | 10.0 | 0.00 | 0.00 | 0.00 | 53 | 1010.6 |
| 20260509193004 | 74 | 342 | 4.0 | 14.0 | 0.00 | 0.00 | 0.00 | 51 | 1010.6 |
| 20260509192503 | 74 | 342 | 3.0 | 14.0 | 0.00 | 0.00 | 0.00 | 51 | 1010.6 |
| 20260509191504 | 74 | 346 | 3.0 | 10.0 | 0.00 | 0.00 | 0.00 | 53 | 1010.7 |
| 20260509191003 | 73 | 352 | 3.0 | 10.0 | 0.00 | 0.00 | 0.00 | 54 | 1010.7 |
| 20260509190504 | 73 | 350 | 3.0 | 10.0 | 0.00 | 0.00 | 0.00 | 51 | 1010.8 |
| 20260509190003 | 74 | 348 | 4.0 | 13.0 | 0.00 | 0.00 | 0.00 | 51 | 1010.8 |
| 20260509185504 | 74 | 351 | 4.0 | 13.0 | 0.00 | 0.00 | 0.00 | 51 | 1010.7 |
| 20260509185004 | 74 | 346 | 5.0 | 12.0 | 0.00 | 0.00 | 0.00 | 52 | 1010.8 |
| 20260509184503 | 74 | 350 | 5.0 | 21.0 | 0.00 | 0.00 | 0.00 | 52 | 1010.9 |
| 20260509184004 | 74 | 355 | 5.0 | 21.0 | 0.00 | 0.00 | 0.00 | 53 | 1010.9 |
| 20260509183504 | 73 | 348 | 4.0 | 12.0 | 0.00 | 0.00 | 0.00 | 53 | 1011.0 |
| 20260509183004 | 74 | 348 | 4.0 | 12.0 | 0.00 | 0.00 | 0.00 | 55 | 1011.1 |
| 20260509182504 | 74 | 351 | 3.0 | 12.0 | 0.00 | 0.00 | 0.00 | 59 | 1011.1 |
| 20260509182003 | 73 | 357 | 3.0 | 15.0 | 0.00 | 0.00 | 0.00 | 58 | 1011.3 |
| 20260509181504 | 73 | 1 | 5.0 | 15.0 | 0.00 | 0.00 | 0.00 | 58 | 1011.3 |
| 20260509181004 | 73 | 1 | 5.0 | 17.0 | 0.00 | 0.00 | 0.00 | 59 | 1011.3 |
| 20260509180504 | 73 | 1 | 5.0 | 17.0 | 0.00 | 0.00 | 0.00 | 63 | 1011.2 |
| 20260509180003 | 72 | 2 | 5.0 | 15.0 | 0.00 | 0.00 | 0.00 | 61 | 1011.3 |
| 20260509175503 | 73 | 5 | 5.0 | 16.0 | 0.00 | 0.00 | 0.00 | 61 | 1011.5 |
| 20260509175004 | 73 | 6 | 5.0 | 16.0 | 0.00 | 0.00 | 0.00 | 61 | 1011.4 |
| 20260509174504 | 73 | 3 | 5.0 | 16.0 | 0.00 | 0.00 | 0.00 | 56 | 1011.5 |
| 20260509174003 | 73 | 357 | 5.0 | 16.0 | 0.00 | 0.00 | 0.00 | 56 | 1011.4 |
| 20260509173004 | 74 | 354 | 5.0 | 15.0 | 0.00 | 0.00 | 0.00 | 55 | 1011.4 |
| 20260509172503 | 74 | 359 | 5.0 | 15.0 | 0.00 | 0.00 | 0.00 | 54 | 1011.3 |
| 20260509172004 | 74 | 351 | 5.0 | 16.0 | 0.00 | 0.00 | 0.00 | 54 | 1011.4 |
| 20260509171504 | 73 | 352 | 6.0 | 16.0 | 0.00 | 0.00 | 0.00 | 52 | 1011.5 |
| 20260509171004 | 74 | 2 | 7.0 | 16.0 | 0.00 | 0.00 | 0.00 | 52 | 1011.4 |
| 20260509170003 | 74 | 348 | 5.0 | 11.0 | 0.00 | 0.00 | 0.00 | 50 | 1011.5 |
| 20260509165504 | 74 | 341 | 5.0 | 14.0 | 0.00 | 0.00 | 0.00 | 51 | 1011.5 |
| 20260509164504 | 74 | 355 | 5.0 | 15.0 | 0.00 | 0.00 | 0.00 | 48 | 1011.6 |
| 20260509164003 | 74 | 356 | 5.0 | 15.0 | 0.00 | 0.00 | 0.00 | 50 | 1011.8 |
| 20260509163504 | 74 | 347 | 5.0 | 13.0 | 0.00 | 0.00 | 0.00 | 49 | 1012.0 |
| 20260509163004 | 73 | 347 | 5.0 | 14.0 | 0.00 | 0.00 | 0.00 | 50 | 1011.8 |
| 20260509162503 | 73 | 348 | 6.0 | 14.0 | 0.00 | 0.00 | 0.00 | 51 | 1012.1 |
| 20260509162004 | 74 | 347 | 5.0 | 17.0 | 0.00 | 0.00 | 0.00 | 50 | 1012.1 |
| 20260509161503 | 74 | 353 | 6.0 | 17.0 | 0.00 | 0.00 | 0.00 | 50 | 1012.0 |
| 20260509161004 | 74 | 358 | 6.0 | 16.0 | 0.00 | 0.00 | 0.00 | 47 | 1011.9 |
| 20260509160503 | 74 | 350 | 5.0 | 16.0 | 0.00 | 0.00 | 0.00 | 51 | 1011.9 |
| 20260509160004 | 73 | 342 | 5.0 | 15.0 | 0.00 | 0.00 | 0.00 | 51 | 1012.0 |
| 20260509155503 | 73 | 349 | 5.0 | 15.0 | 0.00 | 0.00 | 0.00 | 51 | 1012.0 |
| 20260509155004 | 73 | 353 | 5.0 | 14.0 | 0.00 | 0.00 | 0.00 | 52 | 1012.0 |
| 20260509154503 | 72 | 358 | 6.0 | 14.0 | 0.00 | 0.00 | 0.00 | 54 | 1012.3 |
| 20260509154004 | 72 | 5 | 7.0 | 14.0 | 0.00 | 0.00 | 0.00 | 55 | 1012.4 |
| 20260509153503 | 72 | 356 | 6.0 | 15.0 | 0.00 | 0.00 | 0.00 | 57 | 1012.5 |
| 20260509153004 | 72 | 344 | 5.0 | 15.0 | 0.00 | 0.00 | 0.00 | 57 | 1012.7 |
| 20260509152503 | 71 | 349 | 4.0 | 10.0 | 0.00 | 0.00 | 0.00 | 58 | 1013.0 |
| 20260509152004 | 71 | 348 | 4.0 | 10.0 | 0.00 | 0.00 | 0.00 | 61 | 1013.1 |
| 20260509151503 | 71 | 352 | 5.0 | 18.0 | 0.00 | 0.00 | 0.00 | 58 | 1013.1 |
| 20260509151004 | 71 | 358 | 7.0 | 19.0 | 0.00 | 0.00 | 0.00 | 58 | 1013.2 |
| 20260509150503 | 71 | 354 | 6.0 | 19.0 | 0.00 | 0.00 | 0.00 | 57 | 1013.2 |
| 20260509150004 | 71 | 346 | 5.0 | 21.0 | 0.00 | 0.00 | 0.00 | 58 | 1013.2 |
| 20260509145503 | 71 | 344 | 5.0 | 21.0 | 0.00 | 0.00 | 0.00 | 58 | 1013.2 |
| 20260509144504 | 71 | 355 | 6.0 | 20.0 | 0.00 | 0.00 | 0.00 | 58 | 1013.3 |
| 20260509144004 | 71 | 342 | 5.0 | 16.0 | 0.00 | 0.00 | 0.00 | 58 | 1013.3 |
| 20260509143503 | 71 | 345 | 5.0 | 16.0 | 0.00 | 0.00 | 0.00 | 58 | 1013.4 |
| 20260509143004 | 70 | 353 | 6.0 | 20.0 | 0.00 | 0.00 | 0.00 | 58 | 1013.3 |
| 20260509142504 | 70 | 354 | 6.0 | 20.0 | 0.00 | 0.00 | 0.00 | 58 | 1013.3 |
| 20260509142003 | 70 | 352 | 6.0 | 18.0 | 0.00 | 0.00 | 0.00 | 59 | 1013.3 |
| 20260509141504 | 70 | 350 | 6.0 | 16.0 | 0.00 | 0.00 | 0.00 | 58 | 1013.4 |
| 20260509141003 | 71 | 353 | 6.0 | 21.0 | 0.00 | 0.00 | 0.00 | 58 | 1013.4 |
| 20260509140504 | 71 | 350 | 5.0 | 21.0 | 0.00 | 0.00 | 0.00 | 57 | 1013.4 |
| 20260509140004 | 71 | 345 | 5.0 | 17.0 | 0.00 | 0.00 | 0.00 | 59 | 1013.2 |
| 20260509135504 | 71 | 352 | 6.0 | 18.0 | 0.00 | 0.00 | 0.00 | 59 | 1013.3 |
| 20260509135003 | 71 | 352 | 6.0 | 18.0 | 0.00 | 0.00 | 0.00 | 60 | 1013.4 |
| 20260509134504 | 71 | 352 | 5.0 | 13.0 | 0.00 | 0.00 | 0.00 | 62 | 1013.4 |
| 20260509134003 | 70 | 354 | 5.0 | 14.0 | 0.00 | 0.00 | 0.00 | 62 | 1013.5 |
| 20260509133504 | 70 | 350 | 5.0 | 14.0 | 0.00 | 0.00 | 0.00 | 63 | 1013.5 |
| 20260509133004 | 70 | 352 | 5.0 | 16.0 | 0.00 | 0.00 | 0.00 | 63 | 1013.6 |
| 20260509132504 | 70 | 350 | 5.0 | 16.0 | 0.00 | 0.00 | 0.00 | 64 | 1013.5 |
| 20260509132004 | 69 | 354 | 6.0 | 18.0 | 0.00 | 0.00 | 0.00 | 64 | 1013.6 |
| 20260509131503 | 69 | 359 | 6.0 | 18.0 | 0.00 | 0.00 | 0.00 | 65 | 1013.5 |
| 20260509131004 | 69 | 355 | 4.0 | 15.0 | 0.00 | 0.00 | 0.00 | 66 | 1013.6 |
| 20260509130503 | 68 | 351 | 4.0 | 15.0 | 0.00 | 0.00 | 0.00 | 68 | 1013.5 |
| 20260509130004 | 68 | 348 | 4.0 | 12.0 | 0.00 | 0.00 | 0.00 | 69 | 1013.6 |
| 20260509125504 | 67 | 349 | 4.0 | 12.0 | 0.00 | 0.00 | 0.00 | 70 | 1013.6 |
| 20260509125004 | 67 | 352 | 4.0 | 10.0 | 0.00 | 0.00 | 0.00 | 72 | 1013.7 |
| 20260509124004 | 66 | 359 | 4.0 | 14.0 | 0.00 | 0.00 | 0.00 | 73 | 1013.7 |
| 20260509123503 | 65 | 2 | 5.0 | 17.0 | 0.00 | 0.00 | 0.00 | 73 | 1013.7 |
| 20260509123003 | 65 | 357 | 4.0 | 17.0 | 0.00 | 0.00 | 0.00 | 74 | 1013.8 |
| 20260509122504 | 64 | 352 | 4.0 | 11.0 | 0.00 | 0.00 | 0.00 | 76 | 1013.7 |
| 20260509122003 | 64 | 355 | 4.0 | 11.0 | 0.00 | 0.00 | 0.00 | 76 | 1013.9 |
| 20260509121503 | 63 | 359 | 4.0 | 12.0 | 0.00 | 0.00 | 0.00 | 77 | 1013.9 |
| 20260509121004 | 63 | 1 | 4.0 | 14.0 | 0.00 | 0.00 | 0.00 | 77 | 1013.9 |
| 20260509120004 | 61 | 357 | 5.0 | 13.0 | 0.00 | 0.00 | 0.00 | 79 | 1013.9 |
| 20260509115503 | 60 | 355 | 5.0 | 23.0 | 0.00 | 0.00 | 0.00 | 80 | 1014.0 |
| 20260509115004 | 60 | 358 | 5.0 | 23.0 | 0.00 | 0.00 | 0.00 | 81 | 1014.0 |
| 20260509114504 | 59 | 1 | 5.0 | 13.0 | 0.00 | 0.00 | 0.00 | 82 | 1014.0 |
| 20260509114004 | 59 | 5 | 5.0 | 12.0 | 0.00 | 0.00 | 0.00 | 82 | 1014.0 |
| 20260509113504 | 58 | 2 | 5.0 | 12.0 | 0.00 | 0.00 | 0.00 | 83 | 1013.9 |
| 20260509113003 | 58 | 3 | 5.0 | 11.0 | 0.00 | 0.00 | 0.00 | 83 | 1014.0 |
| 20260509112504 | 57 | 359 | 4.0 | 10.0 | 0.00 | 0.00 | 0.00 | 84 | 1014.0 |
| 20260509112003 | 57 | 359 | 4.0 | 9.0 | 0.00 | 0.00 | 0.00 | 84 | 1014.0 |
| 20260509111503 | 56 | 3 | 5.0 | 13.0 | 0.00 | 0.00 | 0.00 | 84 | 1014.0 |
| 20260509111004 | 56 | 4 | 5.0 | 13.0 | 0.00 | 0.00 | 0.00 | 84 | 1014.1 |
| 20260509110504 | 56 | 4 | 5.0 | 13.0 | 0.00 | 0.00 | 0.00 | 84 | 1014.0 |
| 20260509110004 | 56 | 2 | 4.0 | 9.0 | 0.00 | 0.00 | 0.00 | 84 | 1014.0 |
| 20260509105503 | 56 | 2 | 3.0 | 8.0 | 0.00 | 0.00 | 0.00 | 84 | 1013.9 |
| 20260509105004 | 55 | 3 | 3.0 | 8.0 | 0.00 | 0.00 | 0.00 | 84 | 1013.9 |
| 20260509104504 | 55 | 4 | 3.0 | 7.0 | 0.00 | 0.00 | 0.00 | 84 | 1013.9 |
| 20260509104004 | 55 | 5 | 3.0 | 6.0 | 0.00 | 0.00 | 0.00 | 84 | 1014.0 |
| 20260509103004 | 55 | 2 | 3.0 | 8.0 | 0.00 | 0.00 | 0.00 | 84 | 1013.9 |
| 20260509102503 | 55 | 3 | 3.0 | 8.0 | 0.00 | 0.00 | 0.00 | 84 | 1013.9 |
| 20260509101503 | 55 | 5 | 3.0 | 7.0 | 0.00 | 0.00 | 0.00 | 84 | 1013.9 |
| 20260509101004 | 55 | 2 | 3.0 | 5.0 | 0.00 | 0.00 | 0.00 | 83 | 1013.9 |
| 20260509100503 | 55 | 2 | 3.0 | 7.0 | 0.00 | 0.00 | 0.00 | 83 | 1013.9 |
| 20260509100005 | 55 | 4 | 2.0 | 7.0 | 0.00 | 0.00 | 0.00 | 83 | 1013.8 |
| 20260509095503 | 55 | 3 | 3.0 | 6.0 | 0.00 | 0.00 | 0.00 | 83 | 1013.9 |
| 20260509095004 | 55 | 5 | 3.0 | 7.0 | 0.00 | 0.00 | 0.00 | 82 | 1013.9 |
| 20260509094503 | 55 | 15 | 2.0 | 7.0 | 0.00 | 0.00 | 0.00 | 82 | 1013.9 |
| 20260509094005 | 55 | 20 | 2.0 | 6.0 | 0.00 | 0.01 | 0.00 | 82 | 1013.8 |
| 20260509093503 | 56 | 21 | 2.0 | 6.0 | 0.00 | 0.01 | 0.00 | 82 | 1013.7 |
| 20260509093004 | 56 | 20 | 2.0 | 5.0 | 0.00 | 0.01 | 0.00 | 82 | 1013.7 |
| 20260509092504 | 56 | 34 | 2.0 | 7.0 | 0.00 | 0.01 | 0.00 | 82 | 1013.7 |
| 20260509092004 | 56 | 24 | 3.0 | 7.0 | 0.00 | 0.01 | 0.00 | 81 | 1013.7 |
| 20260509091504 | 56 | 8 | 2.0 | 8.0 | 0.00 | 0.01 | 0.00 | 81 | 1013.7 |
| 20260509091003 | 56 | 4 | 3.0 | 8.0 | 0.00 | 0.01 | 0.00 | 81 | 1013.6 |
| 20260509090504 | 56 | 2 | 3.0 | 7.0 | 0.00 | 0.01 | 0.00 | 81 | 1013.7 |
| 20260509090004 | 56 | 3 | 3.0 | 8.0 | 0.00 | 0.01 | 0.00 | 81 | 1013.8 |
| 20260509085504 | 56 | 2 | 3.0 | 8.0 | 0.00 | 0.01 | 0.00 | 81 | 1013.7 |
| 20260509085003 | 56 | 5 | 3.0 | 8.0 | 0.00 | 0.01 | 0.00 | 81 | 1013.7 |
| 20260509084003 | 56 | 359 | 3.0 | 8.0 | 0.00 | 0.01 | 0.00 | 80 | 1013.8 |
| 20260509083503 | 56 | 358 | 3.0 | 9.0 | 0.00 | 0.01 | 0.00 | 80 | 1013.9 |
| 20260509083004 | 56 | 2 | 2.0 | 9.0 | 0.00 | 0.01 | 0.00 | 80 | 1013.7 |
| 20260509082004 | 56 | 7 | 3.0 | 6.0 | 0.00 | 0.01 | 0.00 | 79 | 1013.9 |
| 20260509081004 | 56 | 3 | 4.0 | 10.0 | 0.00 | 0.01 | 0.00 | 79 | 1013.8 |
| 20260509080503 | 56 | 2 | 3.0 | 10.0 | 0.00 | 0.01 | 0.00 | 78 | 1013.9 |
| 20260509080004 | 56 | 359 | 3.0 | 7.0 | 0.00 | 0.01 | 0.00 | 78 | 1013.9 |
| 20260509075503 | 56 | 3 | 3.0 | 7.0 | 0.00 | 0.01 | 0.00 | 77 | 1014.0 |
| 20260509075004 | 56 | 4 | 3.0 | 9.0 | 0.00 | 0.01 | 0.00 | 77 | 1013.9 |
| 20260509074504 | 55 | 3 | 4.0 | 9.0 | 0.00 | 0.01 | 0.00 | 76 | 1014.0 |
| 20260509074003 | 55 | 4 | 3.0 | 8.0 | 0.00 | 0.01 | 0.00 | 76 | 1014.1 |
| 20260509073504 | 55 | 3 | 3.0 | 7.0 | 0.00 | 0.01 | 0.00 | 76 | 1014.1 |
| 20260509073004 | 55 | 4 | 3.0 | 7.0 | 0.00 | 0.01 | 0.00 | 76 | 1014.2 |
| 20260509072504 | 55 | 4 | 3.0 | 8.0 | 0.00 | 0.01 | 0.00 | 75 | 1014.2 |
| 20260509071504 | 55 | 359 | 3.0 | 9.0 | 0.00 | 0.01 | 0.00 | 75 | 1014.2 |
| 20260509071004 | 55 | 355 | 2.0 | 7.0 | 0.00 | 0.01 | 0.00 | 74 | 1014.2 |
| 20260509070506 | 54 | 357 | 2.0 | 7.0 | 0.00 | 0.01 | 0.00 | 74 | 1014.2 |
| 20260509070004 | 54 | 1 | 2.0 | 7.0 | 0.00 | 0.01 | 0.00 | 74 | 1014.2 |
| 20260509065504 | 54 | 1 | 2.0 | 10.0 | 0.00 | 0.01 | 0.00 | 74 | 1014.1 |
| 20260509065003 | 54 | 6 | 2.0 | 10.0 | 0.00 | 0.01 | 0.00 | 74 | 1014.2 |
| 20260509064504 | 54 | 2 | 2.0 | 8.0 | 0.00 | 0.01 | 0.00 | 74 | 1014.2 |
| 20260509064003 | 54 | 359 | 2.0 | 8.0 | 0.00 | 0.01 | 0.00 | 74 | 1014.3 |
| 20260509063003 | 54 | 1 | 2.0 | 7.0 | 0.00 | 0.01 | 0.00 | 73 | 1014.3 |
| 20260509062503 | 54 | 1 | 2.0 | 5.0 | 0.00 | 0.01 | 0.00 | 72 | 1014.3 |
| 20260509062004 | 54 | 1 | 3.0 | 5.0 | 0.00 | 0.01 | 0.00 | 72 | 1014.3 |
| 20260509061504 | 54 | 2 | 3.0 | 6.0 | 0.00 | 0.01 | 0.00 | 71 | 1014.3 |
| 20260509061004 | 54 | 2 | 2.0 | 6.0 | 0.00 | 0.01 | 0.00 | 71 | 1014.4 |
| 20260509060503 | 54 | 1 | 2.0 | 7.0 | 0.00 | 0.01 | 0.00 | 71 | 1014.4 |
| 20260509055503 | 54 | 2 | 1.0 | 4.0 | 0.00 | 0.01 | 0.00 | 70 | 1014.4 |
| 20260509054503 | 54 | 358 | 2.0 | 5.0 | 0.00 | 0.01 | 0.00 | 69 | 1014.3 |
| 20260509054004 | 54 | 1 | 2.0 | 5.0 | 0.00 | 0.01 | 0.00 | 69 | 1014.4 |
| 20260509053005 | 55 | 359 | 3.0 | 8.0 | 0.00 | 0.01 | 0.00 | 68 | 1014.5 |
| 20260509051504 | 55 | 359 | 3.0 | 10.0 | 0.00 | 0.01 | 0.00 | 68 | 1014.5 |
| 20260509051003 | 55 | 1 | 3.0 | 6.0 | 0.00 | 0.01 | 0.00 | 68 | 1014.5 |
| 20260509050504 | 55 | 3 | 3.0 | 8.0 | 0.00 | 0.01 | 0.00 | 67 | 1014.5 |
| 20260509045504 | 55 | 359 | 3.0 | 12.0 | 0.00 | 0.01 | 0.00 | 67 | 1014.6 |
| 20260509044503 | 55 | 358 | 3.0 | 8.0 | 0.00 | 0.01 | 0.00 | 66 | 1014.6 |
| 20260509044004 | 55 | 2 | 3.0 | 8.0 | 0.00 | 0.01 | 0.00 | 66 | 1014.7 |
| 20260509043005 | 55 | 1 | 3.0 | 10.0 | 0.00 | 0.01 | 0.00 | 65 | 1014.8 |
| 20260509042503 | 55 | 359 | 3.0 | 10.0 | 0.00 | 0.01 | 0.00 | 65 | 1014.8 |
| 20260509042004 | 55 | 1 | 4.0 | 9.0 | 0.00 | 0.01 | 0.00 | 65 | 1014.8 |
| 20260509041504 | 55 | 5 | 3.0 | 9.0 | 0.00 | 0.01 | 0.00 | 64 | 1015.0 |
| 20260509041003 | 55 | 5 | 4.0 | 10.0 | 0.00 | 0.01 | 0.00 | 64 | 1014.9 |
| 20260509040504 | 56 | 5 | 5.0 | 10.0 | 0.00 | 0.01 | 0.00 | 63 | 1015.1 |
| 20260509035004 | 56 | 2 | 4.0 | 9.0 | 0.00 | 0.01 | 0.01 | 62 | 1015.0 |
| 20260509034504 | 56 | 2 | 3.0 | 9.0 | 0.00 | 0.01 | 0.01 | 62 | 1015.0 |
| 20260509033503 | 56 | 4 | 4.0 | 10.0 | 0.00 | 0.01 | 0.01 | 61 | 1015.0 |
| 20260509033004 | 56 | 4 | 4.0 | 10.0 | 0.00 | 0.01 | 0.01 | 61 | 1015.0 |
| 20260509032503 | 56 | 4 | 4.0 | 10.0 | 0.00 | 0.01 | 0.01 | 61 | 1015.1 |
| 20260509032004 | 56 | 3 | 4.0 | 10.0 | 0.00 | 0.01 | 0.01 | 60 | 1015.1 |
| 20260509031503 | 56 | 5 | 4.0 | 14.0 | 0.00 | 0.01 | 0.01 | 60 | 1015.1 |
| 20260509030003 | 56 | 2 | 4.0 | 10.0 | 0.00 | 0.01 | 0.01 | 60 | 1014.9 |
| 20260509025504 | 56 | 4 | 4.0 | 9.0 | 0.00 | 0.01 | 0.01 | 60 | 1014.8 |
| 20260509024504 | 57 | 7 | 4.0 | 10.0 | 0.00 | 0.01 | 0.01 | 59 | 1014.8 |
| 20260509024003 | 57 | 2 | 3.0 | 9.0 | 0.00 | 0.01 | 0.01 | 59 | 1014.8 |
| 20260509023504 | 57 | 5 | 3.0 | 9.0 | 0.00 | 0.01 | 0.01 | 59 | 1014.7 |
| 20260509023004 | 57 | 5 | 3.0 | 8.0 | 0.00 | 0.01 | 0.01 | 58 | 1014.8 |
| 20260509022504 | 57 | 3 | 3.0 | 12.0 | 0.00 | 0.01 | 0.01 | 58 | 1014.8 |
| 20260509022003 | 58 | 3 | 3.0 | 12.0 | 0.00 | 0.01 | 0.01 | 58 | 1014.9 |
| 20260509021504 | 58 | 4 | 3.0 | 8.0 | 0.00 | 0.01 | 0.01 | 58 | 1014.8 |
| 20260509021003 | 58 | 1 | 3.0 | 9.0 | 0.00 | 0.01 | 0.01 | 57 | 1014.8 |
| 20260509020504 | 58 | 1 | 3.0 | 9.0 | 0.00 | 0.01 | 0.01 | 57 | 1014.9 |
| 20260509020003 | 58 | 4 | 3.0 | 8.0 | 0.00 | 0.01 | 0.01 | 57 | 1014.9 |
| 20260509015504 | 58 | 1 | 4.0 | 8.0 | 0.00 | 0.01 | 0.01 | 56 | 1014.9 |
| 20260509015003 | 58 | 1 | 3.0 | 10.0 | 0.00 | 0.01 | 0.01 | 56 | 1014.8 |
| 20260509014504 | 58 | 4 | 2.0 | 10.0 | 0.00 | 0.01 | 0.01 | 56 | 1014.8 |
| 20260509014003 | 59 | 10 | 2.0 | 8.0 | 0.00 | 0.01 | 0.01 | 56 | 1014.8 |
| 20260509013504 | 59 | 7 | 3.0 | 9.0 | 0.00 | 0.01 | 0.01 | 55 | 1014.7 |
| 20260509013003 | 59 | 4 | 3.0 | 9.0 | 0.00 | 0.01 | 0.01 | 55 | 1014.7 |
| 20260509012504 | 59 | 3 | 3.0 | 9.0 | 0.00 | 0.01 | 0.01 | 54 | 1014.8 |
| 20260509012003 | 59 | 359 | 2.0 | 9.0 | 0.00 | 0.01 | 0.01 | 54 | 1014.7 |
| 20260509011504 | 59 | 359 | 2.0 | 8.0 | 0.00 | 0.01 | 0.01 | 53 | 1014.6 |
| 20260509011004 | 60 | 2 | 3.0 | 8.0 | 0.00 | 0.01 | 0.01 | 52 | 1014.5 |
| 20260509005503 | 60 | 5 | 3.0 | 11.0 | 0.00 | 0.01 | 0.01 | 51 | 1014.3 |
| 20260509005004 | 60 | 3 | 3.0 | 9.0 | 0.00 | 0.01 | 0.01 | 50 | 1014.2 |
| 20260509004504 | 60 | 1 | 2.0 | 8.0 | 0.00 | 0.01 | 0.01 | 50 | 1014.2 |
| 20260509004004 | 61 | 1 | 2.0 | 8.0 | 0.00 | 0.01 | 0.01 | 50 | 1014.1 |
| 20260509003504 | 61 | 1 | 2.0 | 7.0 | 0.00 | 0.01 | 0.01 | 49 | 1014.1 |
| 20260509003004 | 61 | 2 | 3.0 | 10.0 | 0.00 | 0.01 | 0.01 | 48 | 1014.1 |
| 20260509002504 | 61 | 1 | 2.0 | 10.0 | 0.00 | 0.01 | 0.01 | 48 | 1014.0 |
| 20260509001504 | 62 | 359 | 2.0 | 6.0 | 0.00 | 0.01 | 0.01 | 46 | 1013.9 |
| 20260509001004 | 62 | 1 | 2.0 | 7.0 | 0.00 | 0.01 | 0.01 | 46 | 1013.8 |
| 20260509000503 | 62 | 4 | 2.0 | 7.0 | 0.00 | 0.01 | 0.01 | 45 | 1013.9 |
| 20260508235503 | 62 | 1 | 3.0 | 9.0 | 0.00 | 0.01 | 0.01 | 44 | 1013.6 |
| 20260508235004 | 63 | 1 | 3.0 | 9.0 | 0.00 | 0.01 | 0.01 | 44 | 1013.7 |
| 20260508234503 | 63 | 2 | 2.0 | 9.0 | 0.00 | 0.01 | 0.01 | 44 | 1013.7 |
| 20260508233004 | 64 | 349 | 3.0 | 9.0 | 0.00 | 0.01 | 0.01 | 44 | 1013.6 |
| 20260508232503 | 64 | 351 | 3.0 | 10.0 | 0.00 | 0.01 | 0.01 | 43 | 1013.6 |
| 20260508232004 | 64 | 354 | 4.0 | 10.0 | 0.00 | 0.01 | 0.01 | 43 | 1013.5 |
| 20260508231504 | 64 | 356 | 3.0 | 10.0 | 0.00 | 0.01 | 0.01 | 41 | 1013.5 |
| 20260508231005 | 65 | 349 | 3.0 | 7.0 | 0.00 | 0.01 | 0.01 | 42 | 1013.4 |
| 20260508230504 | 65 | 341 | 4.0 | 11.0 | 0.00 | 0.01 | 0.01 | 41 | 1013.3 |
| 20260508230003 | 65 | 344 | 3.0 | 11.0 | 0.00 | 0.01 | 0.01 | 41 | 1013.3 |
| 20260508225504 | 65 | 348 | 2.0 | 8.0 | 0.00 | 0.01 | 0.01 | 41 | 1013.5 |
| 20260508225004 | 66 | 334 | 3.0 | 10.0 | 0.00 | 0.01 | 0.01 | 41 | 1013.5 |